Weather History for Red Oak, IA

Change the Weather History Date:

Monday, February 18, 2013

  Actual Average Record
Temperature  
Mean Temperature 30 °F -  
Max Temperature 42 °F 40 °F 64 °F (1997)
Min Temperature 19 °F 20 °F -18 °F (1978)
Degree Days  
Heating Degree Days 34    
Moisture  
Dew Point 23 °F    
Average Humidity 69    
Maximum Humidity 87    
Minimum Humidity 55    
Precipitation  
Precipitation 0.00 in - - ()
Sea Level Pressure  
Sea Level Pressure 29.75 in    
Wind  
Wind Speed 11 mph (NW)    
Max Wind Speed 25 mph    
Max Gust Speed 36 mph    
Visibility 10 miles    
Events Snow    
Averages and records for this station are not official NWS values.
T = Trace of Precipitation, MM = Missing Value Source: NWS Daily Summary

Daily Weather History Graph

Daily Weather History Graph

Search for Another Location

Airport:

Trip Planner

Search our weather history database for the weather conditions in past years. The results will help you decide how hot, cold, wet, or windy it might be!

Date:

Astronomy

Feb. 18, 2013 Rise Set
Actual Time 7:10 AM CST 5:59 PM CST
Civil Twilight 6:42 AM CST 6:27 PM CST
Nautical Twilight 6:10 AM CST 6:59 PM CST
Astronomical Twilight 5:39 AM CST 7:31 PM CST
Moon 11:44 AM CST (2/18) 1:52 AM CST (2/18)
Length of Visible Light 11h 44m
Length of Day
10h 48m
First Quarter, 58% of the Moon is Illuminated
Feb 18
First Quarter
Feb 25
Full
Mar 4
Last Quarter
Mar 11
New
Mar 19
First Quarter

Hourly Weather History & Observations

Time (CST) Temp. Windchill Dew Point Humidity Pressure Visibility Wind Dir Wind Speed Gust Speed Precip Events Conditions
12:15 AM 42.8 °F 38.0 °F 30.2 °F 61% 29.58 in 10.0 mi SSE 8.1 mph - N/A   Scattered Clouds
12:35 AM 41.0 °F 36.4 °F 30.2 °F 65% 29.58 in 10.0 mi SSE 6.9 mph - N/A   Clear
12:55 AM 39.2 °F 35.0 °F 30.2 °F 70% 29.57 in 10.0 mi SSE 5.8 mph - N/A   Scattered Clouds
1:15 AM 39.2 °F 35.9 °F 30.2 °F 70% 29.57 in 10.0 mi SSE 4.6 mph - N/A   Scattered Clouds
1:35 AM 37.4 °F 34.9 °F 28.4 °F 70% 29.56 in 10.0 mi SSE 3.5 mph - N/A   Clear
1:55 AM 37.4 °F 33.8 °F 28.4 °F 70% 29.55 in 10.0 mi SSE 4.6 mph - N/A   Scattered Clouds
2:15 AM 37.4 °F 33.8 °F 28.4 °F 70% 29.55 in 10.0 mi SSE 4.6 mph - N/A   Clear
2:35 AM 37.4 °F 34.9 °F 28.4 °F 70% 29.54 in 10.0 mi South 3.5 mph - N/A   Scattered Clouds
3:15 AM 37.4 °F 28.5 °F 30.2 °F 75% 29.57 in 10.0 mi NW 15.0 mph - N/A   Scattered Clouds
3:35 AM 37.4 °F 32.1 °F 28.4 °F 70% 29.57 in 10.0 mi WNW 6.9 mph - N/A   Scattered Clouds
3:55 AM 32.0 °F - 26.6 °F 80% 29.56 in 10.0 mi Calm Calm - N/A   Scattered Clouds
4:15 AM 30.2 °F - 24.8 °F 80% 29.55 in 10.0 mi Calm Calm - N/A   Scattered Clouds
4:35 AM 30.2 °F - 26.6 °F 86% 29.54 in 10.0 mi Calm Calm - N/A   Clear
4:55 AM 30.2 °F 24.3 °F 26.6 °F 86% 29.55 in 10.0 mi NNW 5.8 mph - N/A   Clear
5:15 AM 32.0 °F 27.5 °F 26.6 °F 80% 29.56 in 10.0 mi North 4.6 mph - N/A   Clear
5:35 AM 30.2 °F - 26.6 °F 86% 29.57 in 10.0 mi Calm Calm - N/A   Clear
5:55 AM 30.2 °F - 26.6 °F 86% 29.57 in 10.0 mi Calm Calm - N/A   Clear
6:15 AM 33.8 °F 29.6 °F 28.4 °F 81% 29.58 in 10.0 mi NNW 4.6 mph - N/A   Clear
6:35 AM 35.6 °F 27.5 °F 28.4 °F 75% 29.58 in 10.0 mi NW 11.5 mph - N/A   Clear
6:55 AM 37.4 °F 29.8 °F 30.2 °F 75% 29.60 in 10.0 mi NNW 11.5 mph 17.3 mph N/A   Clear
7:15 AM 37.4 °F 30.8 °F 30.2 °F 75% 29.61 in 10.0 mi NNW 9.2 mph - N/A   Clear
7:35 AM 37.4 °F 29.3 °F 30.2 °F 75% 29.62 in 10.0 mi NNW 12.7 mph 16.1 mph N/A   Clear
7:55 AM 37.4 °F 28.5 °F 30.2 °F 75% 29.62 in 10.0 mi North 15.0 mph 21.9 mph N/A   Clear
8:15 AM 37.4 °F 28.9 °F 30.2 °F 75% 29.62 in 10.0 mi North 13.8 mph 19.6 mph N/A   Clear
8:35 AM 37.4 °F 29.8 °F 30.2 °F 75% 29.64 in 10.0 mi North 11.5 mph - N/A   Clear
8:55 AM 37.4 °F 28.5 °F 30.2 °F 75% 29.64 in 10.0 mi North 15.0 mph - N/A   Scattered Clouds
9:15 AM 39.2 °F 30.2 °F 30.2 °F 70% 29.65 in 10.0 mi NNW 17.3 mph 20.7 mph N/A   Mostly Cloudy
9:35 AM 41.0 °F 32.5 °F 30.2 °F 65% 29.65 in 10.0 mi NNW 17.3 mph 25.3 mph N/A   Overcast
9:55 AM 41.0 °F 31.1 °F 30.2 °F 65% 29.66 in 10.0 mi North 23.0 mph 32.2 mph N/A   Overcast
10:35 AM 41.0 °F 32.8 °F 30.2 °F 65% 29.68 in 10.0 mi NNW 16.1 mph 25.3 mph N/A   Overcast
10:55 AM 39.2 °F 30.8 °F 30.2 °F 70% 29.70 in 10.0 mi NW 15.0 mph 19.6 mph N/A   Overcast
11:15 AM 39.2 °F 31.2 °F 30.2 °F 70% 29.71 in 10.0 mi NNW 13.8 mph 19.6 mph N/A   Overcast
11:35 AM 39.2 °F 29.8 °F 28.4 °F 65% 29.73 in 10.0 mi NNW 18.4 mph 26.5 mph N/A   Overcast
11:55 AM 37.4 °F 26.9 °F 28.4 °F 70% 29.74 in 10.0 mi NW 20.7 mph 31.1 mph N/A   Overcast
12:15 PM 32.0 °F 20.8 °F 28.4 °F 87% 29.75 in 0.5 mi NNW 17.3 mph 31.1 mph N/A Snow Light Snow
12:35 PM 30.2 °F 17.1 °F 26.6 °F 86% 29.75 in 0.8 mi NNW 21.9 mph 29.9 mph N/A Snow Light Snow
12:55 PM 32.0 °F 20.1 °F 26.6 °F 80% 29.76 in 1.2 mi NNW 19.6 mph 24.2 mph N/A Snow Light Snow
1:15 PM 32.0 °F 19.8 °F 24.8 °F 75% 29.76 in 5.0 mi NW 20.7 mph 26.5 mph N/A Snow Light Snow
1:35 PM 33.8 °F 22.8 °F 24.8 °F 70% 29.76 in 10.0 mi NNW 18.4 mph 29.9 mph N/A   Mostly Cloudy
1:55 PM 33.8 °F 21.6 °F 24.8 °F 70% 29.78 in 10.0 mi NW 23.0 mph 32.2 mph N/A   Overcast
2:15 PM 32.0 °F 18.9 °F 23.0 °F 69% 29.78 in 10.0 mi NW 24.2 mph 35.7 mph N/A   Overcast
2:35 PM 32.0 °F 19.2 °F 21.2 °F 64% 29.80 in 10.0 mi NW 23.0 mph 35.7 mph N/A   Mostly Cloudy
2:55 PM 32.0 °F 19.5 °F 21.2 °F 64% 29.81 in 10.0 mi NW 21.9 mph 33.4 mph N/A   Scattered Clouds
3:15 PM 32.0 °F 18.6 °F 21.2 °F 64% 29.81 in 10.0 mi NW 25.3 mph 32.2 mph N/A   Mostly Cloudy
3:35 PM 32.0 °F 19.8 °F 19.4 °F 60% 29.82 in 10.0 mi NW 20.7 mph 31.1 mph N/A   Mostly Cloudy
3:55 PM 33.8 °F 21.9 °F 19.4 °F 56% 29.82 in 10.0 mi NW 21.9 mph 32.2 mph N/A   Overcast
4:15 PM 32.0 °F 18.6 °F 19.4 °F 60% 29.83 in 10.0 mi NW 25.3 mph 34.5 mph N/A   Mostly Cloudy
4:35 PM 30.2 °F 18.1 °F 17.6 °F 60% 29.84 in 10.0 mi NW 18.4 mph 33.4 mph N/A   Scattered Clouds
4:55 PM 30.2 °F 16.2 °F 17.6 °F 60% 29.85 in 10.0 mi NW 25.3 mph 33.4 mph N/A   Scattered Clouds
5:15 PM 30.2 °F 18.5 °F 15.8 °F 55% 29.87 in 10.0 mi NW 17.3 mph 27.6 mph N/A   Scattered Clouds
5:35 PM 28.4 °F 13.8 °F 15.8 °F 59% 29.88 in 10.0 mi NW 25.3 mph 34.5 mph N/A   Clear
5:55 PM 28.4 °F 15.1 °F 15.8 °F 59% 29.89 in 10.0 mi NW 20.7 mph 28.8 mph N/A   Clear
6:15 PM 28.4 °F 16.2 °F 15.8 °F 59% 29.91 in 10.0 mi NW 17.3 mph 27.6 mph N/A   Clear
6:35 PM 28.4 °F 15.8 °F 15.8 °F 59% 29.92 in 10.0 mi NW 18.4 mph 27.6 mph N/A   Clear
6:55 PM 26.6 °F 13.1 °F 15.8 °F 64% 29.93 in 10.0 mi NW 19.6 mph 31.1 mph N/A   Clear
7:15 PM 26.6 °F 14.7 °F 15.8 °F 64% 29.94 in 10.0 mi NW 15.0 mph 21.9 mph N/A   Clear
7:35 PM 24.8 °F 14.0 °F 15.8 °F 69% 29.95 in 10.0 mi NW 11.5 mph - N/A   Clear
7:55 PM 24.8 °F 12.9 °F 15.8 °F 69% 29.96 in 10.0 mi NW 13.8 mph 24.2 mph N/A   Clear
8:15 PM 24.8 °F 13.4 °F 14.0 °F 64% 29.97 in 10.0 mi NW 12.7 mph 24.2 mph N/A   Clear
8:35 PM 24.8 °F 13.4 °F 14.0 °F 64% 29.97 in 10.0 mi NW 12.7 mph 24.2 mph N/A   Clear
8:55 PM 24.8 °F 11.1 °F 12.2 °F 59% 29.99 in 10.0 mi NW 18.4 mph 24.2 mph N/A   Clear
9:15 PM 23.0 °F 8.7 °F 12.2 °F 63% 30.00 in 10.0 mi NW 18.4 mph 27.6 mph N/A   Clear
9:35 PM 21.2 °F 8.3 °F 10.4 °F 63% 30.00 in 10.0 mi NW 13.8 mph 21.9 mph N/A   Clear
9:55 PM 21.2 °F 8.9 °F 10.4 °F 63% 30.01 in 10.0 mi NW 12.7 mph 18.4 mph N/A   Clear
10:15 PM 21.2 °F 8.9 °F 10.4 °F 63% 30.02 in 10.0 mi NNW 12.7 mph - N/A   Clear
10:35 PM 19.4 °F 9.5 °F 10.4 °F 68% 30.03 in 10.0 mi WNW 8.1 mph - N/A   Clear
11:15 PM 21.2 °F 7.8 °F 12.2 °F 68% 30.03 in 10.0 mi NW 15.0 mph 18.4 mph N/A   Clear
11:35 PM 21.2 °F 6.8 °F 12.2 °F 68% 30.04 in 10.0 mi NW 17.3 mph 25.3 mph N/A   Scattered Clouds
11:55 PM 21.2 °F 6.8 °F 12.2 °F 68% 30.04 in 10.0 mi NW 17.3 mph 29.9 mph N/A   Scattered Clouds